| time (UTC) | temp C | wind direction | speed KPH | gust KPH | rain 1hr cm | rain 24hr cm | rain mn cm | humidity % | barometer mb |
| 20260506124553 | 22 | 111 | 9.7 | 14.5 | 0.00 | 0.00 | 0.00 | 93 | 1009.9 |
| 20260506123027 | 22 | 90 | 8.0 | 12.9 | 0.00 | 0.00 | 0.00 | 93 | 1009.8 |
| 20260506121530 | 23 | 114 | 11.3 | 17.7 | 0.00 | 0.00 | 0.00 | 93 | 1009.6 |
| 20260506120027 | 23 | 111 | 11.3 | 19.3 | 0.00 | 0.00 | 0.00 | 92 | 1009.4 |
| 20260506114533 | 23 | 123 | 11.3 | 17.7 | 0.00 | 0.00 | 0.00 | 92 | 1009.3 |
| 20260506113028 | 23 | 129 | 14.5 | 19.3 | 0.00 | 0.00 | 0.00 | 91 | 1009.2 |
| 20260506111525 | 23 | 97 | 14.5 | 20.9 | 0.00 | 0.00 | 0.00 | 91 | 1009.4 |
| 20260506110031 | 23 | 126 | 14.5 | 24.1 | 0.00 | 0.00 | 0.00 | 90 | 1009.3 |
| 20260506104525 | 23 | 113 | 16.1 | 24.1 | 0.00 | 0.00 | 0.00 | 91 | 1009.3 |
| 20260506103029 | 23 | 111 | 11.3 | 22.5 | 0.00 | 0.00 | 0.00 | 91 | 1009.2 |
| 20260506101529 | 23 | 96 | 14.5 | 20.9 | 0.00 | 0.00 | 0.00 | 91 | 1009.1 |
| 20260506100025 | 23 | 109 | 11.3 | 20.9 | 0.00 | 0.00 | 0.00 | 90 | 1009.1 |
| 20260506094527 | 23 | 114 | 14.5 | 20.9 | 0.00 | 0.00 | 0.00 | 90 | 1008.9 |
| 20260506093030 | 23 | 100 | 17.7 | 22.5 | 0.00 | 0.00 | 0.00 | 90 | 1008.9 |
| 20260506091528 | 23 | 94 | 17.7 | 25.7 | 0.00 | 0.00 | 0.00 | 90 | 1008.9 |
| 20260506090027 | 23 | 99 | 19.3 | 27.4 | 0.00 | 0.00 | 0.00 | 90 | 1008.6 |
| 20260506084526 | 23 | 80 | 19.3 | 27.4 | 0.00 | 0.00 | 0.00 | 90 | 1008.7 |
| 20260506083027 | 23 | 107 | 16.1 | 24.1 | 0.00 | 0.00 | 0.00 | 90 | 1008.6 |
| 20260506081528 | 23 | 89 | 17.7 | 29.0 | 0.00 | 0.00 | 0.00 | 90 | 1008.6 |
| 20260506073025 | 23 | 100 | 20.9 | 27.4 | 0.00 | 0.00 | 0.00 | 89 | 1008.8 |
| 20260506071532 | 24 | 103 | 16.1 | 27.4 | 0.00 | 0.00 | 0.00 | 88 | 1008.9 |
| 20260506061533 | 24 | 85 | 16.1 | 29.0 | 0.00 | 0.00 | 0.00 | 86 | 1008.7 |
| 20260506044533 | 26 | 101 | 17.7 | 27.4 | 0.00 | 0.00 | 0.00 | 80 | 1008.7 |
| 20260506043027 | 26 | 82 | 20.9 | 29.0 | 0.00 | 0.00 | 0.00 | 79 | 1008.6 |
| 20260506041529 | 25 | 94 | 16.1 | 22.5 | 0.00 | 0.00 | 0.00 | 80 | 1008.4 |
| 20260506040050 | 25 | 74 | 17.7 | 24.1 | 0.00 | 0.00 | 0.00 | 80 | 1008.0 |
| 20260506034528 | 25 | 107 | 17.7 | 22.5 | 0.00 | 0.00 | 0.00 | 80 | 1007.9 |
| 20260506033026 | 25 | 92 | 16.1 | 22.5 | 0.00 | 0.00 | 0.00 | 80 | 1007.8 |
| 20260506031541 | 25 | 85 | 17.7 | 22.5 | 0.00 | 0.00 | 0.00 | 80 | 1007.6 |
| 20260506030028 | 25 | 89 | 16.1 | 19.3 | 0.00 | 0.00 | 0.00 | 80 | 1007.4 |
| 20260506024529 | 26 | 82 | 11.3 | 14.5 | 0.00 | 0.00 | 0.00 | 78 | 1007.3 |
| 20260506023027 | 26 | 69 | 11.3 | 16.1 | 0.00 | 0.00 | 0.00 | 77 | 1007.2 |
| 20260506021528 | 26 | 73 | 12.9 | 16.1 | 0.00 | 0.00 | 0.00 | 75 | 1007.2 |
| 20260506020029 | 27 | 66 | 12.9 | 17.7 | 0.00 | 0.00 | 0.00 | 75 | 1007.1 |
| 20260506014532 | 27 | 79 | 12.9 | 16.1 | 0.00 | 0.00 | 0.00 | 74 | 1007.0 |
| 20260506013029 | 27 | 71 | 11.3 | 14.5 | 0.00 | 0.00 | 0.00 | 72 | 1007.0 |
| 20260506011530 | 28 | 70 | 8.0 | 14.5 | 0.00 | 0.00 | 0.00 | 69 | 1006.8 |
| 20260506010027 | 29 | 76 | 11.3 | 17.7 | 0.00 | 0.00 | 0.00 | 66 | 1006.6 |
| 20260506004528 | 30 | 69 | 9.7 | 16.1 | 0.00 | 0.00 | 0.00 | 65 | 1006.7 |
| 20260506003028 | 30 | 58 | 14.5 | 20.9 | 0.00 | 0.00 | 0.00 | 62 | 1006.5 |
| 20260506001531 | 30 | 59 | 6.4 | 11.3 | 0.00 | 0.00 | 0.00 | 60 | 1006.4 |
| 20260506000032 | 30 | 51 | 6.4 | 11.3 | 0.00 | 0.00 | 0.00 | 59 | 1006.5 |
| 20260505234529 | 30 | 55 | 6.4 | 11.3 | 0.00 | 0.00 | 0.00 | 58 | 1006.5 |
| 20260505233029 | 30 | 78 | 4.8 | 14.5 | 0.00 | 0.00 | 0.00 | 58 | 1006.5 |
| 20260505231541 | 31 | 74 | 9.7 | 16.1 | 0.00 | 0.00 | 0.00 | 59 | 1006.5 |
| 20260505230033 | 30 | 61 | 6.4 | 16.1 | 0.00 | 0.00 | 0.00 | 60 | 1006.6 |
| 20260505224530 | 31 | 89 | 12.9 | 22.5 | 0.00 | 0.00 | 0.00 | 60 | 1006.4 |
| 20260505223032 | 30 | 65 | 8.0 | 14.5 | 0.00 | 0.00 | 0.00 | 61 | 1006.6 |
| 20260505221530 | 30 | 88 | 8.0 | 19.3 | 0.00 | 0.00 | 0.00 | 61 | 1006.6 |
| 20260505220035 | 30 | 67 | 8.0 | 12.9 | 0.00 | 0.00 | 0.00 | 61 | 1006.9 |
| 20260505214535 | 30 | 92 | 11.3 | 16.1 | 0.00 | 0.00 | 0.00 | 61 | 1007.0 |
| 20260505213033 | 30 | 136 | 3.2 | 14.5 | 0.00 | 0.00 | 0.00 | 62 | 1007.2 |
| 20260505211528 | 30 | 85 | 9.7 | 14.5 | 0.00 | 0.00 | 0.00 | 61 | 1007.5 |
| 20260505210030 | 30 | 234 | 0.0 | 9.7 | 0.00 | 0.00 | 0.00 | 63 | 1007.8 |
| 20260505204534 | 30 | 57 | 6.4 | 16.1 | 0.00 | 0.00 | 0.00 | 63 | 1008.0 |
| 20260505203031 | 29 | 140 | 1.6 | 11.3 | 0.00 | 0.00 | 0.00 | 64 | 1007.9 |
| 20260505201528 | 29 | 50 | 3.2 | 9.7 | 0.00 | 0.00 | 0.00 | 65 | 1008.3 |
| 20260505200039 | 29 | 105 | 6.4 | 14.5 | 0.00 | 0.00 | 0.00 | 65 | 1008.4 |
| 20260505194528 | 28 | 12 | 3.2 | 11.3 | 0.00 | 0.00 | 0.00 | 66 | 1008.5 |
| 20260505193030 | 28 | 283 | 3.2 | 12.9 | 0.00 | 0.00 | 0.00 | 66 | 1008.7 |
| 20260505191534 | 28 | 139 | 4.8 | 12.9 | 0.00 | 0.00 | 0.00 | 68 | 1008.9 |
| 20260505190036 | 28 | 166 | 8.0 | 12.9 | 0.00 | 0.00 | 0.00 | 66 | 1009.1 |
| 20260505184532 | 27 | 38 | 6.4 | 14.5 | 0.00 | 0.00 | 0.00 | 71 | 1009.1 |
| 20260505183039 | 27 | 86 | 4.8 | 11.3 | 0.00 | 0.00 | 0.00 | 72 | 1009.3 |
| 20260505181533 | 26 | 182 | 4.8 | 14.5 | 0.00 | 0.00 | 0.00 | 73 | 1009.8 |
| 20260505180037 | 26 | 180 | 3.2 | 9.7 | 0.00 | 0.00 | 0.00 | 76 | 1009.8 |
| 20260505174541 | 26 | 155 | 4.8 | 12.9 | 0.00 | 0.00 | 0.00 | 75 | 1010.1 |
| 20260505173036 | 25 | 46 | 1.6 | 9.7 | 0.00 | 0.00 | 0.00 | 77 | 1010.2 |
| 20260505171536 | 25 | 135 | 3.2 | 8.0 | 0.00 | 0.00 | 0.00 | 78 | 1010.2 |
| 20260505170034 | 25 | 99 | 0.0 | 9.7 | 0.00 | 0.00 | 0.00 | 80 | 1010.4 |
| 20260505164533 | 23 | 154 | 1.6 | 9.7 | 0.00 | 0.00 | 0.00 | 82 | 1010.2 |
| 20260505163036 | 23 | 142 | 3.2 | 11.3 | 0.00 | 0.00 | 0.00 | 83 | 1010.3 |
| 20260505161537 | 23 | 131 | 1.6 | 8.0 | 0.00 | 0.00 | 0.00 | 86 | 1010.1 |
| 20260505153033 | 22 | 160 | 8.0 | 14.5 | 0.00 | 0.00 | 0.00 | 85 | 1009.9 |
| 20260505151532 | 22 | 126 | 3.2 | 12.9 | 0.00 | 0.00 | 0.00 | 87 | 1010.0 |
| 20260505130104 | 20 | 140 | 6.4 | 11.3 | 0.00 | 0.00 | 0.00 | 92 | 1009.7 |